Commit Graph

404 Commits

Author SHA1 Message Date
3e747be2e6 Build agent with agent-owned rollback 2026-04-19 15:17:42 +08:00
5c04681360 Restore fstream include in graph manager 2026-04-19 15:07:04 +08:00
72d6a073a0 Remove unused graph manager file helpers 2026-04-19 15:06:11 +08:00
7b9d1aa385 Move config rollback ownership to agent 2026-04-19 15:03:38 +08:00
0f4a17aa8c Build agent with previous config fields 2026-04-19 14:46:50 +08:00
e9a720a898 Rename previous config fields in agent API 2026-04-19 14:46:19 +08:00
1742283989 Build agent with candidate apply endpoint 2026-04-19 12:24:15 +08:00
0ef98e1d26 Add candidate config apply endpoint 2026-04-19 12:23:28 +08:00
7a02176577 Reuse saved managerd agent token on deploy 2026-04-19 11:59:28 +08:00
d1d2da08d1 Require managerd agent token for deploy 2026-04-19 11:53:50 +08:00
6a0c533b7f Build agent with config candidate endpoint 2026-04-19 11:24:27 +08:00
041ce18ad0 Add agent config candidate endpoint 2026-04-19 11:24:14 +08:00
ace8dcde72 Render deploy config from template 2026-04-19 10:44:24 +08:00
de77e2ae85 Track single rk3588 agent binary 2026-04-19 10:33:46 +08:00
cd4cd38e67 Build rk3588 agent binary 2026-04-19 10:28:06 +08:00
b98592b29b Add config status metadata reporting 2026-04-19 10:21:16 +08:00
90ec18dc9a Add alarm event trace ids 2026-04-18 20:58:31 +08:00
64af954fe4 Restore production defaults in config template 2026-04-18 12:39:18 +08:00
cfe42bdad3 Expose agent build metadata 2026-04-18 12:16:10 +08:00
2bdde181c5 Fix Windows gtest DLL discovery 2026-04-18 11:58:57 +08:00
a46c319d83 Add config template rendering workflow 2026-04-18 11:56:48 +08:00
ecc6937746 Remove unused legacy detection models 2026-04-18 11:35:29 +08:00
3fb6af8c03 Remove unused model assets 2026-04-18 11:31:20 +08:00
2e5666edb9 Standardize model asset names 2026-04-18 11:27:34 +08:00
5beab86905 Clarify face unknown alarm semantics 2026-04-18 10:54:39 +08:00
8c910d55fc Lower unknown face track age threshold 2026-04-17 16:02:36 +08:00
a657848de2 Use max known similarity for unknown face rule 2026-04-17 15:28:13 +08:00
456cbc3727 Improve unknown face diagnostics analysis 2026-04-17 15:07:34 +08:00
5156d099c4 Add unknown face candidate diagnostics 2026-04-17 11:06:12 +08:00
498a8216fe Relax known face aspect gate 2026-04-17 10:31:36 +08:00
e8badbafbd Ignore local analysis artifacts 2026-04-17 10:18:56 +08:00
02ca4fed52 Add face recognition log analyzer 2026-04-17 10:17:44 +08:00
5644a5bf0b Hide internal face tracking config 2026-04-17 10:00:57 +08:00
cb5fe64e2c Document face recognition tuning parameters 2026-04-16 11:33:53 +08:00
456f0ae53a Allow single-hit known face alarm test 2026-04-16 11:20:08 +08:00
2dea0ad12e Relax known face alarm quality gate 2026-04-16 11:13:04 +08:00
8a8f25f889 Fix face gallery search result type 2026-04-16 10:55:15 +08:00
7ed8c6d51b Rebuild face gallery with multi-embedding samples 2026-04-16 10:51:14 +08:00
54a28ad5c0 Aggregate gallery search by person 2026-04-16 10:41:26 +08:00
87c24bce05 Clarify face recognition semantics and API action logging 2026-04-16 09:18:27 +08:00
0d510e5d9f Shorten face known reentry cooldown for testing 2026-04-16 08:40:27 +08:00
c702b0b1f7 Link ai_face_recog against shared state runtime 2026-04-16 08:34:46 +08:00
2ed61f5c51 Fallback face track association to shared tracker state 2026-04-16 08:22:57 +08:00
ce06126ecd Add face track association diagnostics 2026-04-15 17:16:39 +08:00
a173ea46f9 Keep suppressed face reentry from aging unknown 2026-04-15 16:59:41 +08:00
2df11fa072 Fix face alarm reentry track latch 2026-04-15 16:44:00 +08:00
68d7c9edcf Add face alarm reentry suppression 2026-04-15 16:39:02 +08:00
da36345a90 Prevent double-counting overlapping face rules 2026-04-15 16:13:45 +08:00
a3f478aa22 Suppress unknown alarms for known-leaning tracks 2026-04-15 15:30:59 +08:00
afa197fbd5 Remove legacy face alarm fallback path 2026-04-15 15:23:52 +08:00